EW3393 Weather Reports


time (UTC)temp
F
wind
direction
speed
knots
gust
knots
rain 1hr
in
rain 24hr
in
rain mn
in
humidity
%
barometer
mb
20260509095315 72 319 11.3 13.9 0.00 0.00 0.00 45 1008.3
20260509094832 72 313 11.3 13.9 0.00 0.00 0.00 45 1008.3
20260509094324 72 313 10.4 14.8 0.00 0.00 0.00 45 1008.3
20260509093817 73 296 9.6 16.5 0.00 0.00 0.00 45 1008.4
20260509093329 73 296 13.0 16.5 0.00 0.00 0.00 45 1008.4
20260509092840 73 293 11.3 16.5 0.00 0.00 0.00 45 1008.4
20260509092329 73 305 13.0 16.5 0.00 0.00 0.00 45 1008.4
20260509091823 73 296 11.3 14.8 0.00 0.00 0.00 44 1008.5
20260509091314 74 292 12.2 14.8 0.00 0.00 0.00 42 1008.5
20260509090827 74 296 10.4 15.6 0.00 0.00 0.00 42 1008.5
20260509090321 73 301 10.4 15.6 0.00 0.00 0.00 43 1008.6
20260509085831 73 314 9.6 13.9 0.00 0.00 0.00 45 1008.6
20260509085323 73 300 10.4 13.0 0.00 0.00 0.00 45 1008.7
20260509084815 73 309 9.6 13.0 0.00 0.00 0.00 45 1008.7
20260509084326 74 323 9.6 13.0 0.00 0.00 0.00 44 1008.8
20260509083839 74 308 10.4 13.9 0.00 0.00 0.00 44 1008.8
20260509083330 74 304 11.3 15.6 0.00 0.00 0.00 43 1008.9
20260509082823 75 311 13.0 15.6 0.00 0.00 0.00 42 1008.8
20260509082314 74 313 10.4 13.0 0.00 0.00 0.00 41 1008.8
20260509081831 74 308 11.3 13.0 0.00 0.00 0.00 42 1008.8
20260509081323 74 302 10.4 13.0 0.00 0.00 0.00 42 1008.9
20260509080815 74 305 10.4 13.0 0.00 0.00 0.00 43 1008.9
20260509080347 74 302 9.6 11.3 0.00 0.00 0.00 43 1009.0
20260509075816 74 285 8.7 11.3 0.00 0.00 0.00 42 1009.1
20260509075328 75 277 9.6 12.2 0.00 0.00 0.00 42 1009.1
20260509074820 75 277 9.6 12.2 0.00 0.00 0.00 43 1009.2
20260509074331 75 273 9.6 12.2 0.00 0.00 0.00 43 1009.2
20260509073824 75 285 10.4 12.2 0.00 0.00 0.00 43 1009.2
20260509073319 75 278 7.0 10.4 0.00 0.00 0.00 41 1009.2
20260509072853 75 273 8.7 10.4 0.00 0.00 0.00 42 1009.3
20260509072321 76 292 8.7 10.4 0.00 0.00 0.00 42 1009.3
20260509071814 76 284 7.8 11.3 0.00 0.00 0.00 42 1009.4
20260509071326 76 279 8.7 13.9 0.00 0.00 0.00 41 1009.4
20260509070819 76 268 10.4 16.5 0.00 0.00 0.00 41 1009.5
20260509070329 76 278 13.0 16.5 0.00 0.00 0.00 42 1009.4
20260509065838 76 268 12.2 14.8 0.00 0.00 0.00 41 1009.4
20260509065349 76 288 11.3 16.5 0.00 0.00 0.00 41 1009.5
20260509064821 76 274 11.3 16.5 0.00 0.00 0.00 40 1009.6
20260509064332 76 279 11.3 14.8 0.00 0.00 0.00 40 1009.6
20260509063844 76 285 11.3 14.8 0.00 0.00 0.00 39 1009.6
20260509063319 76 269 9.6 13.0 0.00 0.00 0.00 38 1009.6
20260509062830 77 283 8.7 13.0 0.00 0.00 0.00 38 1009.6
20260509062322 77 288 9.6 14.8 0.00 0.00 0.00 38 1009.6
20260509061815 77 267 11.3 15.6 0.00 0.00 0.00 37 1009.4
20260509061327 77 279 11.3 15.6 0.00 0.00 0.00 38 1009.5
20260509060819 77 294 10.4 14.8 0.00 0.00 0.00 37 1009.5
20260509060330 78 274 10.4 15.6 0.00 0.00 0.00 37 1009.5
20260509055821 77 269 11.3 15.6 0.00 0.00 0.00 38 1009.4
20260509055317 78 295 10.4 13.0 0.00 0.00 0.00 37 1009.5
20260509054829 78 288 9.6 12.2 0.00 0.00 0.00 36 1009.5
20260509054321 78 296 9.6 14.8 0.00 0.00 0.00 36 1009.5
20260509053814 78 306 8.7 14.8 0.00 0.00 0.00 35 1009.4
20260509053325 79 293 9.6 13.9 0.00 0.00 0.00 35 1009.4
20260509052817 79 298 9.6 12.2 0.00 0.00 0.00 34 1009.5
20260509052327 79 264 8.7 11.3 0.00 0.00 0.00 33 1009.5
20260509051820 80 311 7.0 10.4 0.00 0.00 0.00 32 1009.5
20260509051332 80 294 6.1 9.6 0.00 0.00 0.00 31 1009.4
20260509050825 80 301 7.0 10.4 0.00 0.00 0.00 30 1009.5
20260509050321 81 270 7.8 12.2 0.00 0.00 0.00 30 1009.4
20260509045831 81 261 9.6 11.3 0.00 0.00 0.00 29 1009.5
20260509045342 81 251 8.7 12.2 0.00 0.00 0.00 28 1009.4
20260509044814 81 269 7.8 12.2 0.00 0.00 0.00 28 1009.4
20260509044346 81 273 8.7 12.2 0.00 0.00 0.00 27 1009.4
20260509043817 82 284 8.7 18.2 0.00 0.00 0.00 27 1009.4
20260509043328 82 278 10.4 18.2 0.00 0.00 0.00 27 1009.3
20260509042842 82 286 12.2 18.2 0.00 0.00 0.00 28 1009.2
20260509042312 82 263 14.8 20.0 0.00 0.00 0.00 30 1009.2
20260509041825 81 277 14.8 20.0 0.00 0.00 0.00 31 1009.1
20260509041316 82 252 15.6 21.7 0.00 0.00 0.00 32 1009.1
20260509040828 82 278 16.5 21.7 0.00 0.00 0.00 31 1009.1
20260509040323 82 260 16.5 22.6 0.00 0.00 0.00 32 1009.1
20260509035834 82 287 15.6 24.3 0.00 0.00 0.00 31 1009.1
20260509035325 83 273 19.1 24.3 0.00 0.00 0.00 31 1009.0
20260509034818 83 274 18.2 24.3 0.00 0.00 0.00 31 1009.0
20260509034330 83 263 18.2 26.1 0.00 0.00 0.00 30 1008.9
20260509033820 84 299 18.2 26.1 0.00 0.00 0.00 30 1008.9
20260509033330 84 255 19.1 26.1 0.00 0.00 0.00 30 1008.8
20260509032844 84 269 20.9 28.7 0.00 0.00 0.00 30 1008.7
20260509032314 84 281 19.1 28.7 0.00 0.00 0.00 30 1008.7
20260509031827 84 261 20.0 25.2 0.00 0.00 0.00 30 1008.7
20260509031323 85 280 17.4 25.2 0.00 0.00 0.00 29 1008.7
20260509030816 85 267 17.4 26.1 0.00 0.00 0.00 28 1008.5
20260509030325 85 271 20.0 26.1 0.00 0.00 0.00 28 1008.5
20260509025836 86 281 14.8 24.3 0.00 0.00 0.00 28 1008.4
20260509025325 86 279 16.5 26.1 0.00 0.00 0.00 28 1008.3
20260509024817 86 273 19.1 26.1 0.00 0.00 0.00 27 1008.3
20260509024328 86 289 17.4 24.3 0.00 0.00 0.00 27 1008.3
20260509023820 87 309 16.5 26.1 0.00 0.00 0.00 26 1008.3
20260509023330 87 295 20.0 27.8 0.00 0.00 0.00 26 1008.2
20260509022843 87 274 19.1 27.8 0.00 0.00 0.00 26 1008.1
20260509022313 88 292 17.4 22.6 0.00 0.00 0.00 25 1008.1
20260509021829 88 292 17.4 21.7 0.00 0.00 0.00 24 1008.0
20260509021321 89 277 15.6 21.7 0.00 0.00 0.00 23 1008.0
20260509020831 89 283 17.4 22.6 0.00 0.00 0.00 23 1007.9
20260509020323 89 292 18.2 26.1 0.00 0.00 0.00 23 1007.9
20260509015831 90 291 17.4 26.1 0.00 0.00 0.00 22 1007.9
20260509015323 90 317 17.4 24.3 0.00 0.00 0.00 21 1007.8
20260509014816 91 273 15.6 21.7 0.00 0.00 0.00 21 1007.8
20260509014327 91 277 14.8 21.7 0.00 0.00 0.00 21 1007.9
20260509013820 92 281 14.8 21.7 0.00 0.00 0.00 20 1007.7
20260509013352 92 305 14.8 23.5 0.00 0.00 0.00 19 1007.7
20260509012827 92 284 15.6 23.5 0.00 0.00 0.00 20 1007.7
20260509012317 92 299 16.5 25.2 0.00 0.00 0.00 19 1007.8
20260509011830 93 313 17.4 24.3 0.00 0.00 0.00 20 1007.8
20260509011321 93 277 17.4 24.3 0.00 0.00 0.00 19 1007.8
20260509010815 93 294 15.6 24.3 0.00 0.00 0.00 20 1007.7
20260509010327 93 264 18.2 24.3 0.00 0.00 0.00 19 1007.7
20260509005816 94 274 17.4 25.2 0.00 0.00 0.00 19 1007.7
20260509005328 94 274 19.1 25.2 0.00 0.00 0.00 18 1007.6
20260509004825 94 277 17.4 23.5 0.00 0.00 0.00 18 1007.7
20260509004315 95 313 13.9 23.5 0.00 0.00 0.00 18 1007.7
20260509003828 95 284 14.8 24.3 0.00 0.00 0.00 16 1007.6
20260509003319 95 261 17.4 24.3 0.00 0.00 0.00 16 1007.6
20260509002832 95 252 17.4 23.5 0.00 0.00 0.00 16 1007.7
20260509002322 95 277 17.4 26.1 0.00 0.00 0.00 15 1007.7
20260509001815 96 254 19.1 26.9 0.00 0.00 0.00 15 1007.7
20260509001325 96 284 19.1 25.2 0.00 0.00 0.00 15 1007.8
20260509000817 96 273 20.0 26.9 0.00 0.00 0.00 15 1007.8
20260509000313 96 252 20.0 26.9 0.00 0.00 0.00 14 1007.7
20260508235823 97 280 17.4 26.1 0.00 0.00 0.00 14 1007.8
20260508235314 97 265 20.9 26.1 0.00 0.00 0.00 12 1007.8
20260508234826 96 259 18.2 26.1 0.00 0.00 0.00 13 1007.8
20260508234317 97 250 20.0 26.9 0.00 0.00 0.00 13 1007.9
20260508233831 97 260 20.0 25.2 0.00 0.00 0.00 12 1007.9
20260508233324 97 257 19.1 28.7 0.00 0.00 0.00 12 1007.9
20260508232818 97 266 20.0 28.7 0.00 0.00 0.00 12 1007.9
20260508232349 97 248 20.0 27.8 0.00 0.00 0.00 12 1008.0
20260508231845 98 238 17.4 24.3 0.00 0.00 0.00 11 1008.0
20260508231336 98 263 18.2 24.3 0.00 0.00 0.00 12 1008.1
20260508230849 98 255 18.2 24.3 0.00 0.00 0.00 11 1008.1
20260508230320 98 268 17.4 24.3 0.00 0.00 0.00 12 1008.0
20260508225830 98 248 20.9 24.3 0.00 0.00 0.00 12 1008.1
20260508225323 98 260 16.5 23.5 0.00 0.00 0.00 11 1008.2
20260508224817 98 261 18.2 24.3 0.00 0.00 0.00 11 1008.2
20260508224330 98 247 17.4 24.3 0.00 0.00 0.00 11 1008.3
20260508223823 98 268 17.4 22.6 0.00 0.00 0.00 11 1008.4
20260508223319 98 251 16.5 22.6 0.00 0.00 0.00 10 1008.4
20260508222832 98 261 17.4 23.5 0.00 0.00 0.00 11 1008.5
20260508222325 98 267 16.5 24.3 0.00 0.00 0.00 10 1008.5
20260508221819 98 275 15.6 22.6 0.00 0.00 0.00 11 1008.6
20260508221332 98 261 15.6 26.1 0.00 0.00 0.00 10 1008.7
20260508220826 98 250 19.1 26.1 0.00 0.00 0.00 11 1008.7
20260508220318 98 247 18.2 25.2 0.00 0.00 0.00 10 1008.8
20260508215848 98 251 17.4 23.5 0.00 0.00 0.00 10 1008.9
20260508215319 98 269 15.6 21.7 0.00 0.00 0.00 10 1008.9
20260508214815 98 256 16.5 21.7 0.00 0.00 0.00 10 1008.9
20260508214346 98 288 12.2 20.9 0.00 0.00 0.00 10 1009.1
20260508213817 98 247 15.6 20.0 0.00 0.00 0.00 9 1009.1
20260508213349 98 245 15.6 20.9 0.00 0.00 0.00 11 1009.2
20260508212821 98 251 14.8 20.0 0.00 0.00 0.00 10 1009.3
20260508212313 98 257 12.2 23.5 0.00 0.00 0.00 10 1009.4
20260508211826 98 286 14.8 23.5 0.00 0.00 0.00 11 1009.4
20260508211318 98 256 12.2 20.0 0.00 0.00 0.00 10 1009.5
20260508210831 98 252 13.0 20.0 0.00 0.00 0.00 11 1009.5
20260508210343 97 224 12.2 20.9 0.00 0.00 0.00 10 1009.6
20260508205815 98 250 15.6 20.9 0.00 0.00 0.00 11 1009.6
20260508205347 97 251 15.6 20.0 0.00 0.00 0.00 11 1009.7
20260508204839 98 244 15.6 20.9 0.00 0.00 0.00 11 1009.8
20260508204350 97 265 13.9 20.9 0.00 0.00 0.00 11 1009.8
20260508203822 97 234 14.8 20.9 0.00 0.00 0.00 10 1009.8
20260508203335 97 321 13.0 21.7 0.00 0.00 0.00 11 1009.8
20260508202828 97 280 16.5 21.7 0.00 0.00 0.00 12 1009.9
20260508202341 98 270 15.6 20.9 0.00 0.00 0.00 12 1009.9
20260508201814 98 271 13.9 22.6 0.00 0.00 0.00 11 1010.0
20260508201326 97 290 16.5 22.6 0.00 0.00 0.00 12 1010.0
20260508200839 97 274 11.3 21.7 0.00 0.00 0.00 11 1010.1
20260508200350 97 240 14.8 21.7 0.00 0.00 0.00 11 1010.1
20260508195819 97 271 12.2 18.2 0.00 0.00 0.00 11 1010.1
20260508195315 97 278 13.0 18.2 0.00 0.00 0.00 11 1010.2
20260508194828 97 242 9.6 18.2 0.00 0.00 0.00 11 1010.3
20260508194320 97 242 14.8 19.1 0.00 0.00 0.00 11 1010.3
20260508193853 96 271 12.2 19.1 0.00 0.00 0.00 11 1010.4
20260508193323 97 244 9.6 18.2 0.00 0.00 0.00 11 1010.4
20260508192814 96 251 9.6 15.6 0.00 0.00 0.00 12 1010.4
20260508192345 96 263 8.7 17.4 0.00 0.00 0.00 11 1010.5
20260508191817 96 250 8.7 17.4 0.00 0.00 0.00 11 1010.5
20260508191329 96 230 8.7 16.5 0.00 0.00 0.00 11 1010.5
20260508190823 96 226 11.3 16.5 0.00 0.00 0.00 11 1010.6
20260508190319 96 232 9.6 16.5 0.00 0.00 0.00 12 1010.6
20260508185830 96 261 10.4 15.6 0.00 0.00 0.00 11 1010.6
20260508185342 96 257 11.3 13.0 0.00 0.00 0.00 12 1010.6
20260508184814 96 260 8.7 14.8 0.00 0.00 0.00 12 1010.7
20260508184325 96 256 9.6 16.5 0.00 0.00 0.00 11 1010.7
20260508183819 96 262 10.4 16.5 0.00 0.00 0.00 12 1010.7
20260508183331 95 237 7.8 15.6 0.00 0.00 0.00 11 1010.8
20260508182822 94 246 10.4 18.2 0.00 0.00 0.00 12 1010.9
20260508182314 94 238 12.2 18.2 0.00 0.00 0.00 12 1011.0
20260508181831 94 257 10.4 17.4 0.00 0.00 0.00 13 1011.0
20260508181323 94 270 13.9 17.4 0.00 0.00 0.00 13 1010.9
20260508180816 95 245 12.2 16.5 0.00 0.00 0.00 14 1010.9
20260508180326 94 271 13.0 17.4 0.00 0.00 0.00 14 1011.0
20260508175835 94 279 13.0 17.4 0.00 0.00 0.00 16 1011.0
20260508175325 93 269 12.2 20.9 0.00 0.00 0.00 16 1011.0
20260508174818 93 257 14.8 20.9 0.00 0.00 0.00 16 1011.0
20260508174329 93 245 13.0 20.0 0.00 0.00 0.00 17 1011.0
20260508173822 92 271 14.8 21.7 0.00 0.00 0.00 18 1011.0
20260508173333 92 308 14.8 21.7 0.00 0.00 0.00 18 1011.0
20260508172825 91 288 14.8 20.9 0.00 0.00 0.00 18 1010.9
20260508172341 91 275 16.5 20.9 0.00 0.00 0.00 19 1011.0
20260508171833 91 280 15.6 20.9 0.00 0.00 0.00 19 1010.9
20260508171325 91 257 13.0 17.4 0.00 0.00 0.00 21 1011.0
20260508170817 90 281 13.0 16.5 0.00 0.00 0.00 20 1011.0
20260508170349 90 267 13.9 17.4 0.00 0.00 0.00 21 1011.0
20260508165819 90 238 13.0 17.4 0.00 0.00 0.00 20 1011.0
20260508165330 90 285 13.0 18.2 0.00 0.00 0.00 20 1011.0
20260508164824 90 252 13.9 18.2 0.00 0.00 0.00 19 1011.0
20260508164317 89 248 12.2 18.2 0.00 0.00 0.00 21 1011.1
20260508163814 89 274 12.2 15.6 0.00 0.00 0.00 21 1011.1
20260508163325 88 273 12.2 15.6 0.00 0.00 0.00 22 1011.1
20260508162819 88 269 9.6 13.0 0.00 0.00 0.00 24 1011.1
20260508162350 87 311 7.8 13.0 0.00 0.00 0.00 24 1011.1
20260508161822 87 277 10.4 13.9 0.00 0.00 0.00 25 1011.1
20260508161313 86 272 11.3 13.9 0.00 0.00 0.00 26 1011.1
20260508160828 86 296 9.6 15.6 0.00 0.00 0.00 26 1011.1
20260508160320 85 279 12.2 15.6 0.00 0.00 0.00 26 1011.1
20260508155829 85 274 11.3 14.8 0.00 0.00 0.00 27 1011.0
20260508155320 85 275 11.3 14.8 0.00 0.00 0.00 26 1011.0
20260508154819 85 267 10.4 13.9 0.00 0.00 0.00 25 1011.0
20260508154330 84 281 8.7 13.0 0.00 0.00 0.00 25 1011.0
20260508153824 83 275 9.6 14.8 0.00 0.00 0.00 27 1011.1
20260508153316 83 296 10.4 14.8 0.00 0.00 0.00 28 1011.1
20260508152831 82 289 10.4 13.0 0.00 0.00 0.00 29 1011.1
20260508152323 82 275 11.3 13.0 0.00 0.00 0.00 30 1011.1
20260508151817 81 286 9.6 13.9 0.00 0.00 0.00 31 1011.2
20260508151328 80 285 10.4 13.9 0.00 0.00 0.00 33 1011.2
20260508150826 80 281 10.4 13.9 0.00 0.00 0.00 33 1011.2
20260508150318 80 300 11.3 13.9 0.00 0.00 0.00 33 1011.2
20260508145828 79 268 10.4 13.0 0.00 0.00 0.00 33 1011.2
20260508145319 78 273 9.6 13.0 0.00 0.00 0.00 35 1011.2
20260508144853 78 295 11.3 13.9 0.00 0.00 0.00 35 1011.2
20260508144322 77 275 11.3 14.8 0.00 0.00 0.00 34 1011.2
20260508143814 77 298 10.4 13.9 0.00 0.00 0.00 33 1011.2
20260508143345 77 279 10.4 13.9 0.00 0.00 0.00 33 1011.2
20260508142817 76 288 10.4 13.0 0.00 0.00 0.00 35 1011.2
20260508142327 76 290 10.4 13.0 0.00 0.00 0.00 36 1011.2
20260508141819 76 290 9.6 13.0 0.00 0.00 0.00 37 1011.1
20260508141314 76 290 10.4 13.0 0.00 0.00 0.00 37 1011.1
20260508140828 75 303 9.6 13.9 0.00 0.00 0.00 37 1011.0
20260508140320 75 311 11.3 13.9 0.00 0.00 0.00 37 1010.9
20260508135850 74 301 10.4 13.0 0.00 0.00 0.00 39 1010.9
20260508135321 74 293 10.4 13.0 0.00 0.00 0.00 39 1010.8
20260508134816 73 279 10.4 13.0 0.00 0.00 0.00 39 1010.8
20260508134327 73 267 10.4 14.8 0.00 0.00 0.00 39 1010.8
20260508133841 73 283 11.3 14.8 0.00 0.00 0.00 40 1010.8
20260508133332 73 271 11.3 15.6 0.00 0.00 0.00 41 1010.7
20260508132826 72 292 12.2 15.6 0.00 0.00 0.00 41 1010.6
20260508132322 72 297 12.2 14.8 0.00 0.00 0.00 42 1010.6
20260508131816 71 298 11.3 13.0 0.00 0.00 0.00 43 1010.5
20260508131327 71 313 10.4 13.9 0.00 0.00 0.00 44 1010.5
20260508130819 71 305 10.4 13.9 0.00 0.00 0.00 44 1010.5
20260508130331 71 299 10.4 13.9 0.00 0.00 0.00 44 1010.5
20260508125821 70 318 11.3 13.0 0.00 0.00 0.00 46 1010.5
20260508125332 70 311 10.4 12.2 0.00 0.00 0.00 47 1010.4
20260508124845 70 314 10.4 12.2 0.00 0.00 0.00 48 1010.4
20260508124314 69 299 9.6 11.3 0.00 0.00 0.00 49 1010.4
20260508123830 70 301 9.6 12.2 0.00 0.00 0.00 49 1010.4
20260508123321 69 302 9.6 12.2 0.00 0.00 0.00 49 1010.2
20260508122814 69 301 8.7 10.4 0.00 0.00 0.00 49 1010.3
20260508122326 70 279 7.8 10.4 0.00 0.00 0.00 48 1010.2
20260508121818 70 295 8.7 10.4 0.00 0.00 0.00 48 1010.2
20260508121329 70 302 7.8 12.2 0.00 0.00 0.00 47 1010.2
20260508120822 71 272 8.7 13.0 0.00 0.00 0.00 46 1010.1
20260508120352 71 317 10.4 12.2 0.00 0.00 0.00 46 1010.0
20260508115822 71 294 7.8 10.4 0.00 0.00 0.00 45 1010.0
20260508115337 71 298 8.7 11.3 0.00 0.00 0.00 45 1010.0
20260508114827 72 298 9.6 11.3 0.00 0.00 0.00 44 1010.0
20260508114318 72 301 8.7 11.3 0.00 0.00 0.00 42 1010.1
20260508113830 72 309 7.8 11.3 0.00 0.00 0.00 42 1010.1
20260508113321 72 317 6.1 11.3 0.00 0.00 0.00 41 1010.1
20260508112833 72 306 7.8 11.3 0.00 0.00 0.00 40 1010.2
20260508112323 72 301 7.0 10.4 0.00 0.00 0.00 40 1010.1
20260508111837 72 291 3.5 5.2 0.00 0.00 0.00 40 1010.1
20260508111328 71 288 3.5 7.8 0.00 0.00 0.00 40 1010.2
20260508110820 71 295 4.3 11.3 0.00 0.00 0.00 42 1010.1
20260508110314 72 273 7.0 11.3 0.00 0.00 0.00 43 1010.0
20260508105824 71 297 9.6 13.0 0.00 0.00 0.00 45 1010.0
20260508105315 71 290 8.7 13.0 0.00 0.00 0.00 46 1010.0
20260508104847 71 302 9.6 13.0 0.00 0.00 0.00 47 1010.0
20260508104316 71 300 8.7 13.0 0.00 0.00 0.00 47 1010.0
20260508103830 71 306 10.4 13.0 0.00 0.00 0.00 47 1009.9
20260508103321 71 322 9.6 13.9 0.00 0.00 0.00 47 1009.9
20260508102326 71 290 12.2 15.6 0.00 0.00 0.00 47 1009.9
20260508101819 70 302 10.4 13.0 0.00 0.00 0.00 47 1009.9
20260508101315 70 311 9.6 13.0 0.00 0.00 0.00 48 1009.9
20260508100827 71 302 10.4 15.6 0.00 0.00 0.00 47 1009.9
20260508100339 71 281 12.2 15.6 0.00 0.00 0.00 47 1010.0
20260508095827 71 296 12.2 14.8 0.00 0.00 0.00 47 1009.9